Regional Weather Roundup
Issued by NWS

Home | Current Version | Previous Version | Text Only | Print | Product List | Glossary Off
Versions: 1 2 3 4 5 6 7 8 9 10 11 12 13 14 15 16 17 18 19 20 21 22 23 24 25 26 27 28 29 30 31 32 33 34 35 36 37 38 39 40 41 42 43 44 45 46 47 48 49 50

000
ASUS43 KLOT 041621
RWRIL

ILLINOIS REGIONAL WEATHER ROUNDUP
NATIONAL WEATHER SERVICE CHICAGO/ROMEOVILLE IL
1100 AM CDT SAT JUL 04 2015

NOTE: "FAIR" INDICATES FEW OR NO CLOUDS BELOW 12,000 FEET WITH NO
SIGNIFICANT WEATHER AND/OR OBSTRUCTIONS TO VISIBILITY.

* THESE STATIONS ARE NOT UNDER NWS QUALITY CONTROL. THEY ALSO MAY NOT
  REPORT WEATHER SUCH AS PRECIPITATION OR FOG.

ILZ001-002-007-009-015-016-024-041700-
NORTHWEST ILLINOIS

CITY           SKY/WX    TMP DP  RH WIND       PRES   REMARKS
MOLINE         SUNNY     78  56  46 VRB3      30.02S
STERLING*      SUNNY     79  61  53 W6        30.02S HX  80
SAVANNA*       SUNNY     75  61  62 SW3       30.01S
$$

ILZ003-004-008-010-011-017-018-041700-
NORTH CENTRAL ILLINOIS

CITY           SKY/WX    TMP DP  RH WIND       PRES   REMARKS
ROCKFORD       SUNNY     77  60  55 CALM      30.02R
FREEPORT*      SUNNY     74  61  63 W5        30.03R
ROCHELLE*      SUNNY     74  58  57 CALM      30.03R
DE KALB*       SUNNY     72  57  60 CALM      30.03R
PERU*          SUNNY     74  58  56 CALM      30.04R
$$

ILZ005-006-012>014-019>023-041700-
NORTHEAST ILLINOIS

CITY           SKY/WX    TMP DP  RH WIND       PRES   REMARKS
CHICAGO-OHARE  SUNNY     76  55  48 W3        30.00S
CHICAGO-MIDWAY SUNNY     78  57  48 N6        30.00S
AURORA         SUNNY     75  56  51 VRB3      30.02S
LANSING*       SUNNY     75  54  47 CALM      30.01S
JOLIET*        SUNNY     77  61  57 SW5       30.02R
WAUKEGAN       SUNNY     75  59  57 CALM      30.00R
DUPAGE AIRPORT SUNNY     76  57  51 NW3       30.01R
KANKAKEE*      SUNNY     76  61  59 CALM      30.03R
WHEELING       SUNNY     76  56  49 NE3       30.02R
MORRIS*        SUNNY     74  58  56 SW5       30.01R
ROMEOVILLE*    SUNNY     76  56  50 W5        30.02R
NORTHERLY ISL    N/A     71  61  70 E2          N/A
$$

LMZ740>746-041700-
SOUTHERN LAKE MICHIGAN

STATION/POSITION SKY/WX   TEMP    WIND        PRES    VSBY  WAVE
                          AIR SEA DIR/SP/G                  HT/PER
                          (F)     (DEG/KT/KT) (MB)    (MI)  (FT/S)
HARRISON CRIB              67     110/  7/  8   N/A
BURNHAM HARBOR             70      90/  4/  5   N/A
CALUMET HARBOR             70      40/  4/  5   N/A
BURNS HARBOR               68     290/  3/  3 1016.9R
MICHIGAN CITY              68     250/  4/  4   N/A
MICHIGAN CITY 6N           66 65  280/  2/  4   N/A           0
ST. JOSEPH                 64 64                N/A           0
$$

ILZ025>027-034>036-040-047-049-050-058-095>099-041700-
WEST-CENTRAL ILLINOIS

CITY           SKY/WX    TMP DP  RH WIND       PRES   REMARKS
QUINCY         SUNNY     76  62  62 VRB3      30.03F
GALESBURG*     SUNNY     75  60  58 CALM      30.04S
MACOMB*        SUNNY     75  62  63 CALM      30.06S
JACKSONVILLE*  MOSUNNY   76  67  73 CALM      30.04S
PITTSFIELD*    MOSUNNY   76  67  73 S3        30.05S
$$

ILZ028>032-037-038-041>044-048-051>054-059>061-041700-
CENTRAL ILLINOIS

CITY           SKY/WX    TMP DP  RH WIND       PRES   REMARKS
PONTIAC        SUNNY     76  62  63 SW3       30.04R
BLOOMINGTON    MOSUNNY   76  60  57 VRB3      30.05R
DECATUR        SUNNY     76  57  51 CALM      30.04S
PEORIA         SUNNY     77  59  53 CALM      30.04R
LACON*         SUNNY     74  58  56 SW3       30.03R
LINCOLN*       SUNNY     77  61  58 S3        30.04S
SPRINGFIELD    PTSUNNY   77  65  66 S5        30.04S
TAYLORVILLE    SUNNY     73  61  64 CALM      30.04S
$$

ILZ033-039-045-046-055>057-062-063-041700-
EAST-CENTRAL ILLINOIS

CITY           SKY/WX    TMP DP  RH WIND       PRES   REMARKS
CHAMPAIGN      SUNNY     76  61  59 VRB3      30.04S
DANVILLE*      SUNNY     74  60  63 CALM      30.01S
RANTOUL*       SUNNY     76  61  59 CALM      30.04R
MATTOON        SUNNY     75  60  59 NE3       30.03S
PARIS*         SUNNY     76  62  61 E3        30.04S
$$

ILZ079-100>102-041700-
SOUTHWEST ILLINOIS

CITY           SKY/WX    TMP DP  RH WIND       PRES   REMARKS
ALTON          MOSUNNY   75 N/A N/A VRB5      30.03F
BELLEVILLE     MOSUNNY   78  66  67 E7        30.01F HX  80
CAHOKIA*       SUNNY     80  64  58 VRB5      30.02F HX  82
SPARTA*        SUNNY     77  66  68 CALM      30.04R
$$

ILZ064>066-069>071-074>076-080>082-084>086-088>090-092>094-041700-
SOUTH-CENTRAL ILLINOIS

CITY           SKY/WX    TMP DP  RH WIND       PRES   REMARKS
CARBONDALE     MOSUNNY   78  66  66 N6        30.02S HX  80
CAIRO*         PTSUNNY   77  69  76 E3        30.01S
EFFINGHAM*     SUNNY     74  58  55 CALM      30.05S
MARION         PTSUNNY   77  66  69 NE6       30.03S
MT. VERNON     PTSUNNY   77  64  65 NE6       30.03S
CENTRALIA*     MOSUNNY   76  63  64 N3        30.03S
SALEM*         MOSUNNY   77  65  66 CALM      30.03S
METROPOLIS*    CLOUDY    77  70  79 CALM      30.02S
$$

ILZ067-068-072-073-078-083-087-091-041700-
SOUTHEAST ILLINOIS

CITY           SKY/WX    TMP DP  RH WIND       PRES   REMARKS
LAWRENCEVILLE  PTSUNNY   78  66  66 VRB3      30.03R HX  80
FLORA*         SUNNY     75  64  68 NE3       30.04R
FAIRFIELD*     SUNNY     76  67  74 N6        30.01F
HARRISBURG*    SUNNY     76  68  75 NE5       30.03S
ROBINSON*      PTSUNNY   75  64  67 CALM      30.04R
CARMI*         SUNNY     76  62  61 N3        30.01S HAZE
$$

ABBREVIATIONS USED IN REMARKS
   TC - TEMPERATURE IN CELSIUS
  WCI - WIND CHILL INDEX
   HX - HEAT INDEX
  VSB - VISIBILITY
$$




USA.gov is the U.S. government's official web portal to all federal, state and local government web resources and services.